ウェスト-ハートレー彗星

123P/West-Hartley (2011)

English version
Home page
Updated on May 5, 2012

---------------------------------------------------------------------

・ プロフィール

・ 写真集

・ 軌道要素

Epoch 2011 July 18.0 TT = JDT 2455760.5
T 2011 July 4.47073 TT                                  MPC
q   2.1289006            (2000.0)            P               Q
n   0.13000400     Peri.  102.82300     -0.83564398     -0.51446485
a   3.8592086      Node    46.59925     +0.34206463     -0.76152083
e   0.4483582      Incl.   15.35706     +0.42975682     -0.39422322
P   7.58
From 2235 observations 1989 Mar. 14-2012 Apr. 29, mean residual 0".8.
     Nongravitational parameters A1 = +0.17, A2 = +0.0037.

・ 星図

・ 光度変化

        m1 = 6.4 + 5 logΔ + 22.0 log r(t - 24)

---------------------------------------------------------------------

軌道要素はM.P.E.C. 2012-J16に掲載されたものです。
星図はステラナビゲータ Ver.8 (アストロアーツ) で作成したものです。
光度グラフはComet for Windowsで作成したものです。

---------------------------------------------------------------------

Copyright(C) Seiichi Yoshida (comet@aerith.net). All rights reserved.